Date,TemperatureHighF,TemperatureAvgF,TemperatureLowF,DewpointHighF,DewpointAvgF,DewpointLowF,HumidityHigh,HumidityAvg,HumidityLow,PressureMaxIn,PressureMinIn,WindSpeedMaxMPH,WindSpeedAvgMPH,GustSpeedMaxMPH,PrecipitationSumIn
2013-2-1,33.7,29.5,23.1,19.0,9.9,6.0,61,44,34,30.02,29.53,13,4,0,0.00
2013-2-2,31.7,25.3,18.0,13.0,7.7,4.0,58,48,36,30.20,30.00,10,2,0,0.00
2013-2-3,27.1,25.2,22.7,23.0,20.5,13.0,89,83,56,30.00,29.67,8,1,0,0.00
2013-2-4,31.0,25.3,21.0,22.0,12.1,5.0,89,59,39,29.88,29.66,13,3,0,0.00
2013-2-5,29.3,25.6,21.6,25.0,14.0,8.0,92,63,47,29.98,29.88,6,1,0,0.00
2013-2-6,39.1,31.0,25.8,28.0,20.6,7.0,93,69,40,30.23,29.87,13,2,0,0.06
2013-2-7,30.5,24.8,17.3,19.0,4.2,0.0,68,42,29,30.47,30.24,9,2,0,0.00
2013-2-8,33.4,30.2,18.7,32.0,27.3,17.0,97,89,70,30.43,29.54,14,5,0,0.01
2013-2-9,20.9,18.7,15.8,19.0,15.6,8.0,95,88,70,30.12,29.50,18,6,0,0.00
2013-2-10,40.4,23.9,9.9,21.0,10.3,3.0,75,58,32,30.34,30.13,10,2,0,0.03
2013-2-11,44.6,32.6,21.5,44.0,29.7,13.0,98,89,64,30.30,29.55,4,0,0,0.27
2013-2-12,45.2,39.7,35.1,38.0,30.6,27.0,98,71,53,29.82,29.54,14,3,0,0.00
2013-2-13,44.4,36.1,28.1,30.0,26.3,24.0,85,69,49,29.81,29.64,6,1,0,0.00
2013-2-14,46.4,36.9,31.1,30.0,25.3,21.0,83,64,42,29.94,29.66,5,1,0,0.00
2013-2-15,53.5,40.8,30.8,37.0,32.8,25.0,93,75,51,29.95,29.85,5,0,0,0.00
2013-2-16,39.3,35.3,32.0,33.0,28.7,20.0,95,78,57,29.89,29.66,7,2,0,0.03
2013-2-17,31.7,22.7,18.1,21.0,12.6,3.0,92,68,45,29.64,29.31,20,7,0,0.01
2013-2-18,32.7,23.4,15.7,5.0,2.5,-1.0,61,42,26,30.10,29.60,17,6,0,0.00
2013-2-19,48.0,37.5,23.1,43.0,25.7,5.0,97,65,42,30.11,29.52,8,1,0,0.39
2013-2-20,42.9,33.6,27.2,42.0,21.9,12.0,97,64,42,29.71,29.48,15,4,0,0.00
2013-2-21,32.8,28.1,25.1,17.0,14.3,11.0,69,57,45,30.11,29.71,15,4,0,0.00
2013-2-22,40.1,32.8,25.0,27.0,22.7,17.0,79,67,49,30.34,30.13,10,2,0,0.00
2013-2-23,38.9,35.7,31.7,35.0,31.0,26.0,96,83,72,30.28,29.87,7,1,0,0.18
2013-2-24,38.4,35.0,31.3,38.0,34.2,30.0,97,96,95,29.86,29.64,6,1,0,0.55
2013-2-25,41.7,35.5,30.4,34.0,31.1,29.0,96,84,65,30.19,29.84,4,0,0,0.22
2013-2-26,43.2,36.9,29.5,37.0,31.5,28.0,98,82,63,30.29,30.11,8,1,0,0.01
2013-2-27,41.7,40.4,39.0,41.0,39.0,34.0,100,95,82,30.11,29.49,11,5,0,1.01
2013-2-28,49.1,39.8,34.5,40.0,36.3,34.0,97,88,67,29.59,29.47,4,0,0,0.01